STARLINK-37023, 68076

Orbit data source: Space-Track

STARLINK-37023, 68076 is a payload satellite owned by SpaceX/Seattle (US) in LEO that was launched on Wed, 04 Mar 2026 UTC via an FALCON 9 launch vehicle from the Air Force Eastern Test Range (AFETR). Payload-class satellites include a variety of spacecraft equipped with specific instruments for various scientific and technological missions. These include communications satellites like Starlink; space stations such as the ISS; scientific satellites like the Hubble; Earth observation satellites from companies like Planet Labs, Umbra, and HawkEye 360; GPS; miniature CubeSats for education and research; and military/defense satellites.

Loading next visibility...
Identifier
68076, 2026-042H
Orbit
LEO
Country
Flag of USUS
Related business
Manufacturer
SpaceX/Seattle
Mission
Operational Commercial Communications
Bus & Motor
STARLINK V2MO, Unknown motor
Mass
575 kg wet, ~530 kg dry
Launch date (UTC)
2026-03-04 (4 months ago)
Launch vehicle
FALCON 9
Launch site
Air Force Eastern Test Range (AFETR)
Object type
Payload
Rocket body
Debris
Shape & HBR
Box + 2 Pan, 17.7 m
Radar Cross Section
36.964 m², Large (>1 m²)

Expand to show TLE details & history
Last TLE update: 21 hours ago

TLE from 21 hours ago
0 STARLINK-37023
1 68076U 26042H   26170.97512293  .00026130  00000-0  78133-3 0  9992
2 68076  53.1589  62.3414 0001168  91.4802 268.6334 15.34418969 17987
Epoch: 2026-06-19T23:24Z
TLE epoch observation values (Epoch: 2026-06-19T23:24:10.621Z)
Latitude
-0.00004°
Longitude
163.10073°
Altitude
463.567 km
Speed
7.636 km/s
True Right ascension
04h 09m 21s
True Declination
0° 00' 00"
Sunlit
Object was in daylight at epoch
Visualization orbit readout
Latitude
Unknown
Longitude
Unknown
Altitude
Unknown
Speed
Unknown
Apparent Right ascension
Unknown
Apparent Declination
Unknown
Sunlit
N/A
Visualization observer readout
Local Sidereal Time
07:18:51
Azimuth
Unknown
Elevation
Unknown
Doppler factor
Unknown
Orbital elements
Apogee altitude
463.703 km
Perigee altitude
462.105 km
Semi-major axis
6,841.041 km
Eccentricity
0.00012
Inclination
53.1589°
RAAN
62.3414°
Arg. of periapsis
91.4802°
True anomaly
268.62002°
Mean anomaly
268.6334°
Eccentric anomaly
268.62671°
Mean motion
3.83583 °/min
Orbital period
93.85 mins
BSTAR
0.00078133
Loading maneuver chart data...
Computing Atmospheric mass density...
Loading historical data...
Loading historical data...
Loading historical data...
Loading historical data...
Loading historical data...
Loading historical data...
Loading historical data...

Documentation

Showing up to 5 results
|